JA3VQW-13 Hirakata JP current weather conditions

sailwx.info

Wind from 090

Air temperature 20.0° C
Dewpoint 17.2° C

Last reported at 2017-May-25 14:45 UTC.
Time now 2017-May-25 16:10 UTC

Location: N 34°48' E 135°40'.
View on Google Maps.

See reports from other nearby stations

  
Tides and Currents Weather Stations Pressure Air Temp Water Temp Dewpoint Dewpoint Depression Visibility Wind Speed Wind Dir Waves Ship Positions
date/time (UTC)wind fromknots sea level pressurealtimeterstation pressurevisibilityair tempwater tempwave heightnotes
2017-May-25 14:45 090 20.0
2017-May-25 14:27 090 20.0
2017-May-25 14:00 090 20.0
2017-May-25 13:30 090 20.0
2017-May-25 13:06 090 20.0
2017-May-25 13:00 090 20.0
2017-May-25 12:30 090 20.0
2017-May-25 12:00 090 20.0
2017-May-25 11:30 090 20.0
2017-May-25 11:18 090 20.0
2017-May-25 10:48 090 20.0
2017-May-25 10:18 090 20.0
2017-May-25 09:48 090 20.0
2017-May-25 09:18 090 20.0
2017-May-25 08:48 090 20.0
2017-May-25 08:18 090 20.0
2017-May-25 07:48 090 20.0
2017-May-25 07:18 090 20.0
2017-May-25 06:48 090 20.0
2017-May-25 06:18 090 20.0
2017-May-25 05:48 090 20.0
2017-May-25 05:18 090 20.0
2017-May-25 04:47 090 20.0
2017-May-25 04:17 090 20.0
2017-May-25 03:47 090 20.0
2017-May-25 03:27 090 20.0
2017-May-25 02:57 090 20.0
2017-May-25 02:27 090 20.0
2017-May-25 01:57 090 20.0
2017-May-25 01:27 090 20.0
2017-May-25 01:06 090 20.0
2017-May-25 00:57 090 20.0
2017-May-25 00:36 090 20.0
2017-May-25 00:27 090 20.0
2017-May-24 23:57 090 20.0
2017-May-24 23:27 090 20.0
2017-May-24 22:57 090 20.0
2017-May-24 22:27 090 20.0
2017-May-24 21:57 090 20.0
2017-May-24 21:27 090 20.0
2017-May-24 21:17 090 20.0
2017-May-24 21:06 090 20.0
2017-May-24 20:47 090 20.0
2017-May-24 20:18 090 20.0
2017-May-24 19:48 090 20.0
2017-May-24 19:18 090 20.0
2017-May-24 18:48 090 20.0
2017-May-24 18:18 090 20.0
2017-May-24 17:48 090 20.0
2017-May-24 17:17 090 20.0
2017-May-24 16:48 090 20.0
2017-May-24 16:18 090 20.0
2017-May-24 15:48 292 20.0
2017-May-24 15:18 292 20.0
2017-May-24 14:48 292 20.0
2017-May-24 14:17 292 20.0
2017-May-24 13:48 292 20.0
2017-May-24 13:39 292 20.0
2017-May-24 13:09 292 20.0
2017-May-24 12:39 292 20.6
2017-May-24 12:11 135 20.6
2017-May-24 12:02 219 21.1
2017-May-24 11:32 135 21.7
2017-May-24 11:02 315 22.2
2017-May-24 10:32 315 23.3
2017-May-24 10:02 315 22.8
2017-May-24 09:32 315 22.8
2017-May-24 09:02 315 23.3
2017-May-24 08:32 315 23.3
2017-May-24 08:02 315 23.9
2017-May-24 07:32 315 24.4
2017-May-24 07:02 315 24.4
2017-May-24 06:32 315 25.0
2017-May-24 06:02 315 25.6
2017-May-24 05:36 315 26.1
2017-May-24 05:32 315 26.1
2017-May-24 05:02 315 26.1
2017-May-24 04:32 315 26.1
2017-May-24 04:02 158 25.6
2017-May-24 03:32 112 24.4
2017-May-24 03:02 112 24.4
2017-May-24 02:32 270 24.4
2017-May-24 02:02 225 23.9
2017-May-24 01:32 255 23.9
2017-May-24 01:02 292 23.3
2017-May-24 00:57 270 23.3
2017-May-24 00:27 315 22.8
2017-May-23 23:57 248 22.8
2017-May-23 23:27 135 22.2
2017-May-23 22:57 225 21.1
2017-May-23 22:27 131 21.1
2017-May-23 21:57 139 20.6
2017-May-23 21:27 140 1 gusting 4 20.6
2017-May-23 20:57 135 20.6
2017-May-23 20:27 090 20.6
2017-May-23 19:57 090 20.6
2017-May-23 19:27 142 20.6
2017-May-23 18:57 135 20.6
2017-May-23 18:27 135 20.6
2017-May-23 18:06 135 2 gusting 4 20.6
2017-May-23 17:57 112 21.1
2017-May-23 17:36 251 21.1
2017-May-23 17:27 135 21.1
2017-May-23 16:57 135 21.1
2017-May-23 16:36 135 21.7
2017-May-23 16:27 135 21.7